Regional Weather Roundup
Issued by NWS

Home | Current Version | Previous Version | Graphics & Text | Print | Product List | Glossary On
Versions: 1 2 3 4 5 6 7 8 9 10 11 12 13 14 15 16 17 18 19 20 21 22 23 24 25 26 27 28 29 30 31 32 33 34 35 36 37 38 39 40 41 42 43 44 45
000
ASUS45 KBOI 262310
RWRID
WEATHER ROUNDUP FOR IDAHO
NATIONAL WEATHER SERVICE BOISE ID
400 PM MST FRI DEC 26 2014

NOTE: "FAIR" INDICATES FEW OR NO CLOUDS BELOW 12000 FEET
WITH NO SIGNIFICANT WEATHER AND/OR OBSTRUCTIONS TO VISIBILITY

IDZ012-014-270000-
SOUTHWEST IDAHO


CITY           SKY/WX    TMP DP  RH WIND       PRES   REMARKS
BOISE          PTCLDY    36  24  62 NW14      30.22R WCI  27
CALDWELL       CLEAR     39  19  45 SW10      30.25S WCI  32
MOUNTAIN HOME  CLEAR     35  25  68 NW17      30.20R WCI  24
$$

IDZ016-017-270000-
SOUTHCENTRAL IDAHO


CITY           SKY/WX    TMP DP  RH WIND       PRES   REMARKS
BURLEY         PTCLDY    25  18  74 CALM      30.13R
JEROME         CLOUDY    26  18  71 SW6       30.16R WCI  19
TWIN FALLS     CLOUDY    30  21  69 W7        30.15R WCI  23
$$

IDZ019>023-270000-
SOUTHEAST IDAHO


CITY           SKY/WX    TMP DP  RH WIND       PRES   REMARKS
IDAHO FALLS    MOCLDY    20  14  77 SW9       30.09R WCI   9
POCATELLO      MOCLDY    22  18  85 SW13      30.12R WCI  10
REXBURG        CLOUDY    18  11  74 SW6       30.07R WCI  10
$$

IDZ006-010-011-018-031-032-270000-
CENTRAL IDAHO MOUNTAINS


CITY           SKY/WX    TMP DP  RH WIND       PRES   REMARKS
MCCALL         CLOUDY    24  17  74 NW5       30.13R WCI  18
HAILEY         PTCLDY    19   9  63 SE8       30.08R WCI   9
STANLEY          N/A     21  10  62 CALM      30.04R
SALMON         CLOUDY    27  16  63 CALM      30.13R
CHALLIS        CLOUDY    25  13  60 CALM      30.08R
$$

IDZ002-004-006-007-026-270000-
NORTHERN IDAHO


CITY           SKY/WX    TMP DP  RH WIND       PRES   REMARKS
LEWISTON       MOCLDY    40  26  57 NW3       30.29R
LOWELL           N/A     34  32  92 CALM      30.32R
COEUR D`ALENE  CLOUDY    27  25  93 CALM      30.25R
MULLAN PASS    CLOUDY    20  15  81 VRB5      30.05R HAZE    WCI  13
$$


USA.gov is the U.S. government's official web portal to all federal, state and local government web resources and services.